Flag for United Arab Emirates Weather past 2 weeks in Sharjah, Sharjah, United Arab Emirates

Now
95 °F

Sunny.


Feels Like: 100 °F
Forecast: 95 / 105 °F
Wind: 6 mph from South

Location: Sharjah International Airport

Current Time: Aug 4, 2015 at 8:34:00 AM

Latest Report: Aug 4, 2015 at 8:00 AM


Visibility: 10 mi

Pressure: 29.62 "Hg

Humidity: 41%

Dew point: 68 °F

Historic Weather in Sharjah — Graph

°F

Sharjah temperature yesterday

Maximum temperature yesterday: 109 °F (at 1:00 PM)
Minimum temperature yesterday: 93 °F (at 2:00 AM)
Average temperature yesterday: 100 °F

Past Weeks' High & Low Weather Summary

 TemperatureHumidityPressure
High115 °F (Jul 27, 2:00 PM)79% (Jul 24, 2:00 AM)29.62 "Hg (Jul 24, 2:00 AM)
Low82 °F (Jul 20, 7:00 AM)9% (Jul 20, 11:00 AM)29.36 "Hg (Jul 22, 4:00 PM)
Average100 °F33%29.48 "Hg
* Reported Jul 20 7:00 AM — Aug 4 7:00 AM, Sharjah, Weather by CustomWeather, © 2015

Note: Actual official high and low records may vary slightly from our data, if they occured in-between our weather recording intervals... More about our weather records

Advertising

Sharjah weather history for previous 24 hours

 ConditionsComfort  
Time TempWeatherWind HumidityBarometerVisibility
7:00 AM
Tue, Aug 4
95 °FSunny.5 mph39%29.62 "Hg10 mi
6:00 AM91 °FHot.3 mph44%29.59 "HgN/A
5:00 AM90 °FClear.2 mph49%29.59 "Hg10 mi
4:00 AM91 °FClear.5 mph49%29.56 "Hg10 mi
3:00 AM93 °FClear.9 mph49%29.56 "Hg10 mi
2:00 AM95 °FClear.9 mph41%29.56 "Hg10 mi
1:00 AM93 °FClear.6 mph47%29.56 "Hg10 mi
12:00 AM95 °FClear.5 mph47%29.59 "Hg10 mi
11:00 PM
Mon, Aug 3
99 °FClear.7 mph42%29.59 "Hg10 mi
10:00 PM99 °FClear.7 mph33%29.59 "Hg10 mi
9:00 PM99 °FClear.5 mph35%29.56 "Hg10 mi
8:00 PM99 °FClear.6 mph37%29.56 "Hg10 mi
7:00 PM100 °FSunny.8 mph31%29.53 "Hg10 mi
6:00 PM104 °FSunny.12 mph26%29.53 "Hg10 mi
5:00 PM104 °FSunny.14 mph26%29.53 "Hg10 mi
4:00 PM106 °FSunny.12 mph28%29.53 "Hg10 mi
3:00 PM104 °FSunny.13 mph29%29.53 "Hg10 mi
2:00 PM108 °FSunny.5 mph25%29.53 "Hg10 mi
1:00 PM109 °FSunny.2 mph17%29.56 "Hg10 mi
12:00 PM108 °FSunny.6 mph18%29.59 "Hg10 mi
11:00 AM104 °FSunny.8 mph21%29.62 "Hg10 mi
10:00 AM100 °FSunny.5 mph24%29.62 "Hg10 mi
9:00 AM99 °FSunny.9 mph25%29.62 "Hg10 mi
8:00 AM97 °FSunny.7 mph28%29.62 "Hg10 mi
Weather by CustomWeather, © 2015

See weather overviewHow to use our weather pages